Hourly Data Report for October 22, 2014

All times are specified in Local Standard Time (LST). Add 1 hour to adjust for Daylight Saving Time where and when it is observed.

MONCTON INTL A
NEW BRUNSWICK

46°06'44.000" N
64°40'43.000" W
70.70 m
8103201
71705
YQM

Download Data

Hourly Data (October 2014)
Hourly Data Report for October 22, 2014
Temp Definition
°C
Dew Point Temp Definition
°C
Rel Hum Definition
%
Wind Dir Definition
10's deg

Wind Spd Definition
km/h
Visibility Definition
km
Stn Press Definition
kPa
Hmdx Definition


Wind Chill Definition


Weather Definition


TIME
00:00 Legend Double Dagger 6.1 2.9 80 9 11 24.1 101.71     LegendNANA
01:00 Legend Double Dagger 6.3 2.8 78 9 10 24.1 101.74     Rain Showers
02:00 Legend Double Dagger 6.9 2.4 73 7 14 24.1 101.75     Rain Showers
03:00 Legend Double Dagger 6.2 3.4 82 5 14 24.1 101.76     Rain Showers
04:00 Legend Double Dagger 6.5 3.7 82 4 15 24.1 101.74     LegendNANA
05:00 Legend Double Dagger 6.6 2.7 76 6 17 24.1 101.77     Mainly Clear
06:00 Legend Double Dagger 6.6 3.2 79 6 14 24.1 101.79     LegendNANA
07:00 Legend Double Dagger 6.6 3.8 82 5 14 24.1 101.85     LegendNANA
08:00 Legend Double Dagger 7.8 4.4 79 6 18 24.1 101.94     Mostly Cloudy
09:00 Legend Double Dagger 9.0 4.8 75 4 23 24.1 101.95     LegendNANA
10:00 Legend Double Dagger 9.2 5.0 75 5 19 24.1 102.00     LegendNANA
11:00 Legend Double Dagger 10.1 4.7 69 5 31 24.1 101.94     Mostly Cloudy
12:00 Legend Double Dagger 10.2 4.6 68 5 32 24.1 101.91     LegendNANA
13:00 Legend Double Dagger 9.7 3.9 67 5 27 24.1 101.90     LegendNANA
14:00 Legend Double Dagger 8.5 5.1 79 5 16 24.1 101.90     Rain
15:00 Legend Double Dagger 7.9 5.6 85 4 23 16.1 101.86     Rain
16:00 Legend Double Dagger 7.5 6.1 91 4 23 9.7 101.85     Rain,Fog
17:00 Legend Double Dagger 7.5 6.1 91 3 28 9.7 101.82     Rain,Fog
18:00 Legend Double Dagger 7.4 6.0 91 4 29 19.3 101.74     Rain
19:00 Legend Double Dagger 7.6 5.9 89 4 29 19.3 101.77     Rain
20:00 Legend Double Dagger 7.6 6.1 90 4 26 19.3 101.80     Rain
21:00 Legend Double Dagger 7.8 6.6 92 4 27 19.3 101.70     Rain
22:00 Legend Double Dagger 7.9 6.5 91 5 25 16.1 101.71     Rain
23:00 Legend Double Dagger 8.2 7.0 92 5 25 16.1 101.67     Rain

Notes on Data Quality.

Legend

  • E = Estimated
  • M = Missing
  • NA = Not Available
  • ‡ = Partner data that is not subject to review by the National Climate Archives
Date modified: